Home   Weather   Porto Novo   Past weeks

Flag for Benin Past Weather in Porto Novo, Benin — Yesterday and Last 2 Weeks

Now
77 °F

Thunderstorms. Partly sunny.


Feels Like: 78 °F
Forecast: 76 / 85 °F
Wind: 8 mph from Southwest

Location: Cotonou Airport

Current Time: Sep 25, 2016 at 6:26:06 PM

Latest Report: Sep 25, 2016 at 5:00 PM


Visibility: 4 mi

Pressure: 29.77 "Hg

Humidity: 94%

Dew Point: 75 °F

Location of Porto NovoLocation

Past Weather in Porto Novo — Graph

°F

Porto Novo Temperature Yesterday

Maximum temperature yesterday: 86 °F (at 1:00 PM)
Minimum temperature yesterday: 75 °F (at 2:00 AM)
Average temperature yesterday: 80 °F

High & Low Weather Summary for the Past Weeks

 TemperatureHumidityPressure
High86 °F (Sep 18, 12:00 PM)100% (Sep 14, 1:00 PM)29.98 "Hg (Sep 14, 1:00 PM)
Low73 °F (Sep 17, 2:00 AM)66% (Sep 17, 12:00 PM)29.77 "Hg (Sep 25, 5:00 PM)
Average80 °F86%29.88 "Hg
* Reported Sep 10 5:00 PM — Sep 25 5:00 PM, Porto Novo, Weather by CustomWeather, © 2016

Note: Actual official high and low records may vary slightly from our data, if they occured in-between our weather recording intervals... More about our weather records

Advertising

Porto Novo Weather History for the Previous 24 Hours

Scroll right to see more
 ConditionsComfort  
Time TempWeatherWind HumidityBarometerVisibility
5:00 PM
Sun, Sep 25
77 °FThunderstorms. Partly sunny.8 mph94%29.77 "Hg4 mi
4:00 PM77 °FThunderstorms. Partly sunny.9 mph94%29.80 "Hg4 mi
3:00 PM77 °FThunderstorms. Partly sunny.10 mph94%29.83 "Hg4 mi
2:00 PM79 °FThunderstorms. Scattered clouds.8 mph89%29.83 "Hg5 mi
1:00 PM79 °FScattered clouds.7 mph94%29.86 "Hg5 mi
12:00 PM77 °FScattered clouds.5 mph94%29.89 "Hg5 mi
11:00 AM77 °FThunderstorms. Partly sunny.No wind94%29.89 "Hg5 mi
10:00 AM77 °FThunderstorms. Partly sunny.No wind94%29.92 "Hg3 mi
9:00 AM77 °FThunderstorms. Partly sunny.No wind94%29.92 "Hg4 mi
8:00 AM77 °FThunderstorms. Scattered clouds.No wind94%29.86 "Hg5 mi
7:00 AM75 °FThunderstorms. Broken clouds.No wind94%29.86 "Hg5 mi
6:00 AM75 °FThunderstorms. Passing clouds.3 mph94%29.83 "Hg4 mi
5:00 AM75 °FPassing clouds.2 mph94%29.83 "Hg4 mi
4:00 AM75 °FPassing clouds.5 mph94%29.83 "Hg4 mi
3:00 AM77 °FThunderstorms. Passing clouds.6 mph89%29.80 "Hg4 mi
2:00 AM77 °FThunderstorms. Passing clouds.7 mph94%29.83 "Hg4 mi
1:00 AM77 °FThunderstorms. Passing clouds.2 mph94%29.86 "Hg4 mi
12:00 AM77 °FThunderstorms. Passing clouds.No wind94%29.86 "Hg4 mi
11:00 PM
Sat, Sep 24
77 °FThunderstorms. Passing clouds.6 mph94%29.89 "Hg4 mi
10:00 PM79 °FThunderstorms. Passing clouds.16 mph94%29.86 "Hg5 mi
9:00 PM79 °FThunderstorms. Passing clouds.12 mph94%29.86 "Hg5 mi
8:00 PM81 °FThunderstorms. Passing clouds.12 mph84%29.83 "Hg5 mi
7:00 PM81 °FThunderstorms. Passing clouds.12 mph89%29.83 "Hg5 mi
6:00 PM81 °FThunderstorms. Broken clouds.15 mph89%29.80 "Hg5 mi
Weather by CustomWeather, © 2016

See weather overviewHow to use our weather pages